RADUGA 32 [-]

Last updated on July 6, 2021, 3:35 p.m. UTC

1 23448U 94087A   21187.02034595 -.00000089  00000-0  00000+0 0  9993
2 23448  14.7321   5.0132 0002715 174.0411 185.0296  1.00282893114825
UTC
Height (km)
Latitude
Longitude
Inclination
Orbital Period
UTC large
Height (km)
Speed (km/s)
/
Latitude / Longitude
Inclination (degrees)
Orbital Period (minutes)
Azimuth
Elevation
Range (km)
Doppler Factor
iOS Compass Heading
iOS Angle